Akron Canton, OH

1:51 PM EDT on September 20, 2017 (GMT -0400)
Akron-Canton Regional

Weather History for KCAK - February, 2014

Change the Weather History Date:

Tuesday, February 11, 2014

  Actual Average Record
Temperature  
Mean Temperature 11 °F 28 °F  
Max Temperature 18 °F 36 °F 71 °F (1932)
Min Temperature 3 °F 21 °F -11 °F (1899)
Degree Days  
Heating Degree Days 54 37  
Month to date heating degree days 496 414  
Since 1 July heating degree days 4141 3950  
Cooling Degree Days 0 0  
Month to date cooling degree days 0 0  
Year to date cooling degree days 0 0  
Moisture  
Dew Point 3 °F    
Average Humidity 70    
Maximum Humidity 88    
Minimum Humidity 51    
Precipitation  
Precipitation T in 0.08 in 0.58 in (1956)
Month to date precipitation 0.68 0.90  
Year to date precipitation 2.60 3.51  
Snow  
Snow 0.20 in 0.40 in - ()
Month to date snowfall 8.7 4.1  
Since 1 July snowfall 51.0 30.1  
Snow Depth 7.00 in    
Sea Level Pressure  
Sea Level Pressure 30.44 in    
Wind  
Wind Speed 4 mph (WNW)    
Max Wind Speed 9 mph    
Max Gust Speed 9 mph    
Visibility 7 miles    
Events Snow    
T = Trace of Precipitation, MM = Missing Value Source: NWS Daily Summary

Daily Weather History Graph

Daily Weather History Graph

Search for Another Location

Airport or City:

Trip Planner

Search our weather history database for the weather conditions in past years. The results will help you decide how hot, cold, wet, or windy it might be!

Date:

Astronomy

Feb. 11, 2014 Rise Set
Actual Time 7:25 AM EST 5:55 PM EST
Civil Twilight 6:56 AM EST 6:23 PM EST
Nautical Twilight 6:24 AM EST 6:56 PM EST
Astronomical Twilight 5:52 AM EST 7:28 PM EST
Moon 3:14 PM EST (2/11) 5:01 AM EST (2/11)
Length of Visible Light 11h 27m
Length of Day
10h 30m
Waxing Gibbous, 90% of the Moon is Illuminated
Feb 11
Waxing Gibbous
Feb 14
Full
Feb 22
Last Quarter
Mar 1
New
Mar 8
First Quarter

Hourly Weather History & Observations

Time (EST) Temp. Windchill Dew Point Humidity Pressure Visibility Wind Dir Wind Speed Gust Speed Precip Events Conditions
12:51 AM 7.0 °F -1.7 °F 1.0 °F 77% 30.38 in 8.0 mi WSW 4.6 mph - N/A   Partly Cloudy
1:51 AM 6.1 °F - 1.0 °F 80% 30.38 in 8.0 mi Calm Calm - N/A   Partly Cloudy
2:51 AM 4.1 °F - -0.0 °F 83% 30.39 in 8.0 mi Calm Calm - N/A   Clear
3:51 AM 3.0 °F - -0.0 °F 87% 30.39 in 5.0 mi Calm Calm - N/A   Clear
4:51 AM 3.0 °F - -0.0 °F 87% 30.40 in 5.0 mi Calm Calm - N/A   Clear
5:51 AM 3.0 °F - -0.0 °F 87% 30.41 in 5.0 mi Calm Calm - N/A   Clear
6:51 AM 3.0 °F -6.4 °F -0.0 °F 87% 30.43 in 3.0 mi WSW 4.6 mph - N/A   Scattered Clouds
7:13 AM 3.2 °F -10.3 °F 1.4 °F 92% 30.36 in 2.0 mi West 8.1 mph - 0.00 in Snow Light Snow
7:51 AM 5.0 °F -9.1 °F 1.9 °F 87% 30.47 in 2.5 mi WSW 9.2 mph - 0.00 in Snow Light Snow
8:19 AM 5.0 °F -5.6 °F 1.4 °F 85% 30.39 in 1.5 mi WSW 5.8 mph - 0.00 in Snow Light Snow
8:51 AM 5.0 °F -4.1 °F 1.9 °F 87% 30.48 in 1.0 mi West 4.6 mph - 0.00 in Snow Light Snow
9:51 AM 7.0 °F -4.5 °F 4.1 °F 88% 30.48 in 3.0 mi WSW 6.9 mph - 0.00 in   Mostly Cloudy
10:07 AM 8.6 °F -1.3 °F 5.0 °F 85% 30.40 in 5.0 mi West 5.8 mph - N/A   Mostly Cloudy
10:51 AM 12.0 °F - 6.1 °F 77% 30.48 in 7.0 mi Calm Calm - N/A   Scattered Clouds
11:51 AM 16.0 °F 8.8 °F 8.1 °F 71% 30.48 in 10.0 mi West 4.6 mph - N/A   Scattered Clouds
12:51 PM 18.0 °F 12.7 °F 9.0 °F 68% 30.46 in 10.0 mi WSW 3.5 mph - N/A   Scattered Clouds
1:51 PM 17.1 °F 8.7 °F 7.0 °F 65% 30.45 in 10.0 mi West 5.8 mph - N/A   Scattered Clouds
2:51 PM 18.0 °F 11.1 °F 5.0 °F 57% 30.45 in 10.0 mi West 4.6 mph - N/A   Scattered Clouds
3:51 PM 17.8 °F 8.5 °F 2.7 °F 52% 30.45 in 10.0 mi SW 6.9 mph - N/A   Partly Cloudy
4:51 PM 17.2 °F 10.2 °F 2.7 °F 53% 30.46 in 10.0 mi NNW 4.6 mph - N/A   Partly Cloudy
5:51 PM 16.5 °F 8.1 °F 4.6 °F 60% 30.47 in 10.0 mi NNW 5.8 mph - N/A   Clear
6:51 PM 10.9 °F 4.7 °F 5.0 °F 77% 30.50 in 10.0 mi North 3.5 mph - N/A   Clear
7:51 PM 10.6 °F 1.0 °F 5.0 °F 78% 30.50 in 10.0 mi North 5.8 mph - N/A   Clear
8:51 PM 7.7 °F -2.4 °F 3.7 °F 84% 30.51 in 10.0 mi North 5.8 mph - N/A   Clear
9:51 PM 7.0 °F -6.6 °F 3.6 °F 86% 30.49 in 10.0 mi North 9.2 mph - N/A   Clear
10:51 PM 5.7 °F -6.1 °F 2.7 °F 87% 30.49 in 10.0 mi North 6.9 mph - N/A   Clear
11:51 PM 5.0 °F -5.6 °F 2.7 °F 90% 30.47 in 10.0 mi NE 5.8 mph - N/A   Clear